Date String (YYYY-MM-DD hh:mm:ss) UTC,Instrument flags,absolute air pressure of the measurement (hPa),sample flow rate (lpm),inlet stack bypass flow (lpm),air temperature of the measurement (°C),ambient temperature measured by the external sensor (°C),aerosol sample conditioner tube jacket temperature (°C),OPC LED temperature (°C),internal box temperature (°C),relative humidity of the measurement (%),span deviation,mass concentration of particles derived from Lorenz-Mie calculation of OPC scattering (μg/m³),mass concentration of particles derived from Lorenz-Mie calculation of OPC scattering (μg/m³),mass concentration of particles derived from Lorenz-Mie calculation of OPC scattering (μg/m³)
DateTimeUTC,F1_M11,P_M11,Q1_M11,Q2_M11,T1_M11,T2_M11,T3_M11,T4_M11,T5_M11,U1_M11,ZSPAN_M11,X0_M11,X2_M11,X1_M11
2023-07-15 14:00:00,SystemResetWarning,0836.8,4.99,000.00,029.6,028.3,000.0,038.1,031.2,31.3,-001.0,0009.61,0005.31,0004.70
2023-07-15 14:01:00,SystemResetWarning,0836.8,5.00,000.00,029.6,028.3,000.0,038.1,031.2,31.8,-001.0,0009.43,0005.29,0004.68
2023-07-15 14:02:00,SystemResetWarning,0836.8,4.99,000.00,029.6,028.4,000.0,038.1,031.3,31.8,-001.3,0009.54,0005.28,0004.66
2023-07-15 14:03:00,SystemResetWarning,0836.8,5.00,000.00,029.7,028.5,000.0,038.1,031.3,31.1,-001.3,0010.30,0005.23,0004.65
2023-07-15 14:04:00,SystemResetWarning,0836.8,5.00,000.00,029.7,028.5,000.0,038.1,031.3,31.4,-000.7,0011.10,0005.25,0004.65
2023-07-15 14:05:00,SystemResetWarning,0836.8,5.00,000.00,029.7,028.6,000.0,038.2,031.4,31.1,-000.8,0012.08,0005.25,0004.65
2023-07-15 14:06:00,SystemResetWarning,0836.8,5.00,000.00,029.7,028.0,000.0,038.1,031.3,31.5,-001.3,0012.19,0005.24,0004.65
2023-07-15 14:07:00,SystemResetWarning,0836.8,5.00,000.00,029.7,026.2,000.0,038.0,031.1,32.5,-001.0,0012.63,0005.27,0004.65
2023-07-15 14:08:00,SystemResetWarning,0836.8,5.00,000.00,029.6,025.1,000.0,037.9,030.8,31.4,-000.8,0012.75,0005.28,0004.64
2023-07-15 14:09:00,SystemResetWarning,0836.8,5.00,000.00,029.5,025.1,000.0,037.9,030.6,31.3,-001.1,0012.77,0005.26,0004.62
2023-07-15 14:10:00,SystemResetWarning,0836.8,5.01,000.00,029.4,025.5,000.0,037.9,030.5,31.6,-001.1,0012.75,0005.24,0004.58
2023-07-15 14:11:00,SystemResetWarning,0836.8,5.00,000.00,029.3,025.9,000.0,037.9,030.6,32.2,0000.0,0012.75,0005.22,0004.58
2023-07-15 14:12:00,SystemResetWarning,0836.8,5.00,000.00,029.3,026.3,000.0,037.9,030.7,32.7,0000.0,0012.73,0005.23,0004.57
2023-07-15 14:13:00,SystemResetWarning,0836.8,5.00,000.00,029.3,026.7,000.0,037.9,030.8,32.9,0000.0,0012.64,0005.22,0004.56
2023-07-15 14:14:00,SystemResetWarning,0836.8,5.00,000.00,029.3,027.0,000.0,037.9,030.8,32.3,0000.0,0011.92,0005.22,0004.54
2023-07-15 14:15:00,SystemResetWarning,0836.8,5.01,000.00,029.3,027.3,000.0,037.9,030.9,31.6,0000.0,0011.07,0005.15,0004.51
2023-07-15 14:16:00,SystemResetWarning,0836.8,5.00,000.00,029.4,027.5,000.0,037.9,030.9,32.8,-000.3,0009.50,0005.10,0004.49
2023-07-15 14:17:00,SystemResetWarning,0836.8,4.98,000.00,029.4,027.7,000.0,037.9,031.0,32.4,0000.0,0009.00,0005.07,0004.46
2023-07-15 14:18:00,SystemResetWarning,0836.8,4.99,000.00,029.4,027.9,000.0,037.9,031.0,31.5,0000.0,0008.61,0005.01,0004.43
2023-07-15 14:19:00,SystemResetWarning,0836.8,5.00,000.00,029.4,028.0,000.0,037.9,031.0,31.7,0000.0,0009.18,0005.01,0004.40
2023-07-15 14:20:00,SystemResetWarning,0836.8,5.00,000.00,029.5,028.1,000.0,037.9,031.1,31.6,0000.0,0009.62,0005.03,0004.40
2023-07-15 14:21:00,SystemResetWarning,0836.8,5.01,000.00,029.5,028.2,000.0,038.0,031.1,31.2,0000.0,0009.59,0005.02,0004.41
2023-07-15 14:22:00,SystemResetWarning,0836.8,5.00,000.00,029.5,028.3,000.0,038.0,031.2,31.9,0000.0,0009.54,0004.99,0004.39
2023-07-15 14:23:00,SystemResetWarning,0836.8,5.01,000.00,029.6,028.4,000.0,038.0,031.2,31.4,0000.1,0010.20,0004.96,0004.37
2023-07-15 14:24:00,SystemResetWarning,0836.8,5.00,000.00,029.6,028.4,000.0,038.0,031.3,31.7,0000.0,0010.28,0004.93,0004.36
2023-07-15 14:25:00,SystemResetWarning,0836.8,4.99,000.00,029.6,028.5,000.0,038.0,031.3,32.8,0000.0,0010.25,0004.93,0004.35
2023-07-15 14:26:00,SystemResetWarning,0836.8,5.00,000.00,029.7,028.5,000.0,038.1,031.3,33.2,0000.0,0010.17,0004.94,0004.37
2023-07-15 14:27:00,SystemResetWarning,0836.8,5.00,000.00,029.7,028.6,000.0,038.1,031.4,32.8,0000.0,0010.52,0004.97,0004.37
2023-07-15 14:28:00,SystemResetWarning,0836.7,4.99,000.00,029.7,027.9,000.0,038.0,031.3,31.2,0000.0,0010.85,0004.96,0004.34
2023-07-15 14:29:00,SystemResetWarning,0836.8,5.00,000.00,029.6,026.1,000.0,037.9,031.0,30.9,0000.0,0010.77,0004.95,0004.34
2023-07-15 14:30:00,SystemResetWarning,0836.8,5.00,000.00,029.5,025.2,000.0,037.8,030.8,31.0,0000.0,0010.06,0004.93,0004.35
2023-07-15 14:31:00,SystemResetWarning,0836.8,5.01,000.00,029.4,025.2,000.0,037.8,030.6,32.3,0000.0,0009.74,0004.94,0004.36
2023-07-15 14:32:00,SystemResetWarning,0836.8,5.01,000.00,029.3,025.6,000.0,037.8,030.6,32.1,0000.0,0009.87,0004.94,0004.35
2023-07-15 14:33:00,SystemResetWarning,0836.8,4.99,000.00,029.3,026.0,000.0,037.8,030.6,32.6,0000.0,0010.09,0004.94,0004.34
2023-07-15 14:34:00,SystemResetWarning,0836.8,5.00,000.00,029.3,026.4,000.0,037.9,030.7,33.1,0000.0,0009.91,0004.98,0004.37
2023-07-15 14:35:00,SystemResetWarning,0836.8,5.00,000.00,029.3,026.8,000.0,037.9,030.8,32.1,0000.0,0010.79,0005.05,0004.40
2023-07-15 14:36:00,SystemResetWarning,0836.8,4.99,000.00,029.3,027.1,000.0,037.9,030.8,32.2,0000.0,0010.86,0005.10,0004.41
2023-07-15 14:37:00,SystemResetWarning,0836.8,5.00,000.00,029.3,027.4,000.0,037.9,030.9,33.2,0000.0,0011.16,0005.13,0004.41
2023-07-15 14:38:00,SystemResetWarning,0836.8,5.01,000.00,029.3,027.6,000.0,037.9,030.9,33.2,0000.0,0010.97,0005.12,0004.40
2023-07-15 14:39:00,SystemResetWarning,0836.8,5.01,000.00,029.4,027.8,000.0,037.9,031.0,32.2,0000.0,0010.65,0005.15,0004.42
2023-07-15 14:40:00,SystemResetWarning,0836.8,4.98,000.00,029.4,027.9,000.0,037.9,031.0,32.3,0000.0,0010.93,0005.18,0004.44
2023-07-15 14:41:00,SystemResetWarning,0836.8,5.00,000.00,029.4,028.0,000.0,037.9,031.1,32.2,0000.0,0011.39,0005.21,0004.46
2023-07-15 14:42:00,SystemResetWarning,0836.8,5.00,000.00,029.5,028.2,000.0,037.9,031.1,31.3,0000.0,0011.93,0005.22,0004.46
2023-07-15 14:43:00,SystemResetWarning,0836.9,5.01,000.00,029.5,028.2,000.0,037.9,031.1,31.1,0000.0,0012.92,0005.24,0004.46
2023-07-15 14:44:00,SystemResetWarning,0836.9,5.00,000.00,029.5,028.3,000.0,037.9,031.2,31.9,0000.0,0012.84,0005.27,0004.48
2023-07-15 14:45:00,SystemResetWarning,0836.9,5.01,000.00,029.6,028.4,000.0,038.0,031.2,31.1,0000.0,0012.80,0005.25,0004.48
2023-07-15 14:46:00,SystemResetWarning,0836.8,5.00,000.00,029.6,028.5,000.0,038.0,031.3,32.1,0000.0,0012.39,0005.21,0004.48
2023-07-15 14:47:00,SystemResetWarning,0836.9,4.97,000.00,029.6,028.5,000.0,038.0,031.3,31.1,0000.0,0013.21,0005.19,0004.49
2023-07-15 14:48:00,SystemResetWarning,0836.9,5.01,000.00,029.7,028.6,000.0,038.0,031.3,31.3,0000.0,0013.66,0005.16,0004.48
2023-07-15 14:49:00,SystemResetWarning,0836.9,4.99,000.00,029.7,027.5,000.0,038.0,031.3,31.0,0000.0,0013.55,0005.15,0004.45
2023-07-15 14:50:00,SystemResetWarning,0836.8,5.00,000.00,029.6,025.8,000.0,037.8,030.9,31.1,0000.0,0013.36,0005.09,0004.42
2023-07-15 14:51:00,SystemResetWarning,0836.8,5.01,000.00,029.5,025.1,000.0,037.8,030.7,32.3,0000.0,0013.14,0005.05,0004.41
2023-07-15 14:52:00,SystemResetWarning,0836.8,5.01,000.00,029.4,025.3,000.0,037.8,030.5,32.9,0000.0,0012.65,0005.05,0004.39
2023-07-15 14:53:00,SystemResetWarning,0836.8,4.99,000.00,029.3,025.7,000.0,037.8,030.5,32.9,0000.0,0012.31,0004.98,0004.36
2023-07-15 14:54:00,SystemResetWarning,0836.8,4.99,000.00,029.3,026.2,000.0,037.8,030.6,31.7,0000.0,0011.47,0004.94,0004.34
2023-07-15 14:55:00,SystemResetWarning,0836.8,5.01,000.00,029.3,026.5,000.0,037.8,030.7,32.5,0000.0,0011.22,0004.91,0004.32
2023-07-15 14:56:00,SystemResetWarning,0836.8,5.00,000.00,029.3,026.9,000.0,037.8,030.8,33.7,0000.0,0011.17,0004.89,0004.31
2023-07-15 14:57:00,SystemResetWarning,0836.8,4.99,000.00,029.3,027.2,000.0,037.8,030.8,32.9,0000.0,0010.60,0004.84,0004.28
2023-07-15 14:58:00,SystemResetWarning,0836.8,5.00,000.00,029.3,027.5,000.0,037.8,030.9,32.5,0000.0,0010.08,0004.78,0004.25
2023-07-15 14:59:00,SystemResetWarning,0836.8,5.01,000.00,029.3,027.7,000.0,037.8,030.9,32.2,0000.0,0009.15,0004.74,0004.24
